This is the latest recevied weather packets stored in our database for station/object K8GLX. If no packets are shown the sender has not sent any weather packets the latest 10 day(s).
| Time | Temp. | Humidity | Pressure | Rain* | Wind** | Luminosity | Snow |
|---|---|---|---|---|---|---|---|
| 1777412533 | 16.11° C | 74% | 1012.4 hPa | 0 mm | - | 301 W/m² | - |
| 1777412227 | 16.67° C | 74% | 1012.2 hPa | 0 mm | - | 318 W/m² | - |
| 1777411933 | 16.11° C | 75% | 1012.2 hPa | 0 mm | - | 330 W/m² | - |
| 1777411628 | 16.11° C | 76% | 1012.3 hPa | 0 mm | - | 345 W/m² | - |
| 1777411462 | 16.11° C | 75% | 1012.2 hPa | 0 mm | - | 364 W/m² | - |
| 1777411028 | 16.67° C | 75% | 1012 hPa | 0 mm | - | 377 W/m² | - |
| 1777410861 | 16.11° C | 75% | 1012.2 hPa | 0 mm | - | 396 W/m² | - |
| 1777410428 | 16.11° C | 74% | 1012.3 hPa | 0 mm | - | 415 W/m² | - |
| 1777410233 | 16.11° C | 74% | 1012.1 hPa | 0 mm | - | 432 W/m² | - |
| 1777409939 | 16.67° C | 75% | 1012.1 hPa | 0 mm | - | 448 W/m² | - |
| 1777409661 | 16.11° C | 75% | 1012 hPa | 0 mm | - | 464 W/m² | - |
| 1777409229 | 16.11° C | 76% | 1011.9 hPa | 0 mm | - | 479 W/m² | - |
| 1777409061 | 16.67° C | 75% | 1012.1 hPa | 0 mm | - | 497 W/m² | - |
| 1777408628 | 16.11° C | 75% | 1011.8 hPa | 0 mm | - | 508 W/m² | - |
| 1777408461 | 16.67° C | 75% | 1011.8 hPa | 0 mm | - | 522 W/m² | - |
| 1777408028 | 16.67° C | 75% | 1012 hPa | 0 mm | - | 537 W/m² | - |
| 1777407734 | 17.22° C | 74% | 1012 hPa | 0 mm | - | 548 W/m² | - |
| 1777407428 | 16.67° C | 74% | 1011.8 hPa | 0 mm | - | 559 W/m² | - |
| 1777407133 | 17.22° C | 72% | 1011.7 hPa | 0 mm | - | 566 W/m² | - |
| 1777406947 | 17.78° C | 72% | 1011.7 hPa | 0 mm | - | 579 W/m² | - |
| 1777406661 | 17.78° C | 72% | 1011.8 hPa | 0 mm | - | 590 W/m² | - |
| 1777406228 | 17.22° C | 73% | 1011.5 hPa | 0 mm | - | 601 W/m² | - |
| 1777405934 | 16.67° C | 74% | 1011.4 hPa | 0 mm | - | 614 W/m² | - |
| 1777405628 | 16.67° C | 75% | 1011.7 hPa | 0 mm | - | 622 W/m² | - |
| 1777405334 | 17.22° C | 74% | 1011.7 hPa | 0 mm | - | 635 W/m² | - |
* Rain latest hour (hover to see other rain measurements)
** Current wind speed in m/s (hover to see current wind gust speed)